Location: Newark
(48.9233°N, 29.3439°E)
Time: 02:21:03
(UTC+00:00)

Envisat - Pass Details

Date: 24 September 2019
Orbit: 764 x 766 km, 98.1° (Epoch: 18 October)

Event Time Altitude Azimuth Distance (km) Brightness Sun altitude
Rises 16:54:56 0° 192° (SSW) 3,221 6.3 -10.2°
Reaches altitude 10° 16:57:28 10° 203° (SSW) 2,299 5.6 -10.7°
Maximum altitude 17:01:57 32° 265° (W) 1,310 5.0 -11.4°
Drops below altitude 10° 17:06:29 10° 328° (NNW) 2,314 6.2 -12.1°
Sets 17:09:03 0° 339° (NNW) 3,245 6.8 -12.5°
